Flag for Russia Weather past 2 weeks in Saint-Petersburg, Russia

Now
52 °F

Mostly cloudy.


Feels Like: 46 °F
Forecast: 36 / 47 °F
Wind: 20 mph from Northwest

Location: St. Petersburg

Current Time: Sep 30, 2014 at 3:21:37 PM

Latest Report: Sep 30, 2014 at 3:00 PM


Visibility: N/A

Pressure: 30.01 "Hg

Humidity: 67%

Dew point: 41 °F

Location of Saint-PetersburgLocation

Historic Weather in Saint-Petersburg — Graph

°F

Saint-Petersburg temperature yesterday

Maximum temperature yesterday: 63 °F (at 3:30 PM)
Minimum temperature yesterday: 52 °F (at 9:00 AM)
Average temperature yesterday: 56 °F

Past Weeks' High & Low Weather Summary

 TemperatureHumidityPressure
High70 °F (Sep 19, 4:00 PM)100% (Sep 17, 6:30 AM)30.45 "Hg (Sep 17, 6:30 AM)
Low37 °F (Sep 18, 8:00 AM)34% (Sep 16, 4:30 PM)29.39 "Hg (Sep 23, 10:00 AM)
Average52 °F76%29.94 "Hg
* Reported Sep 15 2:00 PM — Sep 30 2:00 PM, Saint-Petersburg, Weather by CustomWeather, © 2014

Note: Actual official high and low records may vary slightly from our data, if they occured in-between our weather recording intervals... More about our weather records

Advertising

Saint-Petersburg weather history for previous 24 hours

 ConditionsComfort  
Time TempWeatherWind HumidityBarometerVisibility
2:00 PM
Sep 30
54 °FPartly sunny.20 mph67%29.98 "HgN/A
1:30 PM52 °FPartly sunny.17 mph72%29.95 "HgN/A
1:00 PM54 °FPartly sunny.13 mph67%29.95 "HgN/A
12:30 PM52 °FPartly sunny.13 mph72%29.95 "HgN/A
12:00 PM52 °FMostly cloudy.17 mph72%29.92 "HgN/A
11:30 AM50 °FMostly cloudy.17 mph76%29.92 "HgN/A
11:00 AM50 °FPartly sunny.20 mph76%29.89 "HgN/A
10:30 AM50 °FBroken clouds.17 mph76%29.86 "HgN/A
10:00 AM50 °FCloudy.20 mph76%29.86 "HgN/A
9:30 AM50 °FCloudy.17 mph76%29.86 "HgN/A
9:00 AM48 °FMostly cloudy.17 mph82%29.83 "HgN/A
8:30 AM50 °FOvercast.15 mph76%29.83 "HgN/A
8:00 AM48 °FOvercast.15 mph82%29.83 "HgN/A
7:30 AM50 °FOvercast.10 mph76%29.83 "HgN/A
7:00 AM50 °FOvercast.13 mph76%29.80 "HgN/A
6:30 AM48 °FOvercast.10 mph82%29.80 "HgN/A
6:00 AM45 °FOvercast.8 mph87%29.80 "HgN/A
5:30 AM45 °FOvercast.10 mph87%29.80 "HgN/A
5:00 AM45 °FPartly cloudy.10 mph87%29.80 "HgN/A
4:30 AM46 °FPartly cloudy.10 mph82%29.80 "HgN/A
4:00 AM46 °FPartly cloudy.10 mph82%29.80 "HgN/A
3:30 AM50 °FMostly cloudy.10 mph67%29.80 "HgN/A
3:00 AM50 °FMostly cloudy.10 mph67%29.80 "HgN/A
2:30 AM50 °FMostly cloudy.10 mph67%29.80 "HgN/A
2:00 AM50 °FMostly cloudy.10 mph71%29.80 "HgN/A
1:30 AM52 °FMostly cloudy.10 mph67%29.77 "HgN/A
1:00 AM52 °FMostly cloudy.10 mph82%29.77 "HgN/A
12:30 AM48 °FOvercast.8 mph94%29.77 "HgN/A
12:00 AM50 °FOvercast.8 mph88%29.77 "HgN/A
11:30 PM
Sep 29
54 °FOvercast.8 mph82%29.77 "HgN/A
11:00 PM54 °FOvercast.8 mph88%29.77 "HgN/A
10:30 PM54 °FOvercast.6 mph82%29.77 "HgN/A
10:00 PM54 °FOvercast.10 mph88%29.80 "HgN/A
9:30 PM54 °FOvercast.13 mph82%29.80 "HgN/A
9:00 PM55 °FOvercast.8 mph72%29.80 "HgN/A
8:30 PM54 °FCloudy.6 mph72%29.80 "HgN/A
8:00 PM55 °FSunny.6 mph67%29.80 "Hg10 mi
7:30 PM55 °FSunny.8 mph67%29.80 "Hg10 mi
7:00 PM57 °FSunny.8 mph63%29.83 "Hg10 mi
6:30 PM57 °FSunny.13 mph63%29.83 "Hg10 mi
6:00 PM59 °FBroken clouds.15 mph55%29.83 "HgN/A
5:30 PM61 °FBroken clouds.15 mph55%29.83 "HgN/A
5:00 PM61 °FBroken clouds.15 mph55%29.83 "HgN/A
4:30 PM63 °FBroken clouds.10 mph52%29.83 "HgN/A
4:00 PM63 °FBroken clouds.17 mph49%29.83 "HgN/A
3:30 PM63 °FBroken clouds.17 mph52%29.83 "HgN/A
3:00 PM61 °FBroken clouds.20 mph59%29.83 "HgN/A
Weather by CustomWeather, © 2014

See weather overviewHow to use our weather pages